[[{"header":{"parameterUnit":"m.s-1","parameterCategory":1,"la1":30.2991,"la2":30.254,"lo1":-89.0895,"lo2":-89.0444,"dy":0.0017,"dx":0.0017,"nx":28,"ny":28,"refTime":"2024-07-27T21:00:00:Z","depth":0,"parameterNumber":2,"parameterNumberName":"U-component_of_WINDS"},"data":[0,0,0,0,0,0,0,0,0,0,0,0,0,0,0,0,0,0,0,0,0,0,0,0,0,0,0,0,0,0,0,0,0,0,0,0,0,0,0,0,0,0,0,0,0,0,0,0,0,0,0,0,0,0,0,0,0,0,-0.8924,-0.8924,0,-0.8992,-0.8993,-0.8993,-0.8999,-0.8999,-0.8998,-0.8997,-0.907,-0.9072,-0.9075,0,0,0,0,0,0,0,0,0,0,0,0,0,-0.8802,-0.8804,-0.8924,-0.8924,-0.8925,-0.8992,-0.8993,-0.8994,-0.8999,-0.8999,-0.8998,-0.8997,-0.9069,-0.9072,-0.9075,0,0,0,0,0,0,0,0,0,0,0,0,0,-0.8861,-0.8805,-0.8923,-0.8936,-0.8938,-0.8992,-0.8993,-0.8994,-0.9,-0.8999,-0.8997,-0.8996,-0.9068,-0.9072,-0.9076,-0.9122,0,0,-0.9088,-0.9089,0,0,0,0,0,0,0,0,-0.8858,-0.8865,-0.8933,-0.8935,-0.8937,-0.8986,-0.8976,-0.9037,-0.9,-0.8976,-0.8997,-0.8996,-0.9043,-0.9049,-0.9064,-0.9125,-0.9129,-0.9088,-0.909,-0.9092,-0.9093,0,0,0,0,0,0,0,-0.8853,-0.8863,-0.8951,-0.8934,-0.8937,-0.894,-0.8947,-0.8988,-0.9015,-0.8978,-0.8979,-0.8987,-0.9044,-0.906,-0.9066,-0.913,-0.9088,-0.9091,-0.9094,-0.9095,-0.9235,-0.9236,0,0,0,0,0,0,-0.8847,-0.8859,-0.8949,-0.8953,-0.8894,-0.8943,-0.8951,-0.8972,-0.9015,-0.902,-0.8988,-0.8987,-0.9054,-0.9061,-0.9069,-0.9127,-0.9092,-0.9096,-0.9098,-0.9233,-0.9235,-0.9236,0,0,0,0,0,0,-0.8844,-0.8854,-0.8946,-0.8906,-0.8918,-0.8946,-0.8969,-0.8973,-0.899,-0.9022,-0.9027,-0.8999,-0.9054,-0.9063,-0.9109,-0.913,-0.9097,-0.9101,-0.9232,-0.9234,-0.9236,-0.9243,0,0,0,0,0,0,-0.884,-0.8853,-0.887,-0.8906,-0.892,-0.8984,-0.8971,-0.8976,-0.8996,-0.8996,-0.9034,-0.9039,-0.9053,-0.9103,-0.9113,-0.9134,-0.9104,-0.923,-0.9233,-0.9235,-0.9241,-0.9245,-0.9249,0,0,0,0,0,-0.8836,-0.887,-0.8871,-0.8882,-0.8942,-0.8985,-0.8993,-0.9008,-0.8998,-0.9016,-0.9037,-0.9038,-0.9126,-0.9108,-0.9119,-0.9142,-0.9229,-0.9232,-0.9235,-0.924,-0.9245,-0.9249,0,0,0,0,0,0,-0.8836,-0.8875,-0.8877,-0.8923,-0.8951,-0.8986,-0.9009,-0.9012,-0.9044,-0.9042,-0.906,-0.9069,-0.9115,-0.9133,-0.9112,-0.919,-0.9176,-0.9182,-0.9176,-0.9181,-0.9185,-0.918,-0.9107,0,0,0,0,0,-0.8842,-0.8873,-0.8905,-0.8943,-0.8957,-0.8981,-0.9,-0.9009,-0.9039,-0.9051,-0.9075,-0.9104,-0.9139,-0.9161,-0.9194,-0.9244,-0.9253,-0.9266,-0.9269,-0.9272,-0.9277,-0.9306,-0.9313,-0.9246,-0.9246,-0.9246,0,0,-0.8854,-0.8878,-0.8897,-0.8944,-0.8966,-0.8999,-0.899,-0.9025,-0.905,-0.9056,-0.9101,-0.912,-0.9154,-0.9203,-0.9226,-0.922,-0.9297,-0.9276,-0.9278,-0.9281,-0.931,-0.9316,-0.9322,-0.9248,-0.9248,-0.9248,0,0,-0.8892,-0.8913,-0.8948,-0.8971,-0.9004,-0.902,-0.9029,-0.9064,-0.9076,-0.9121,-0.9127,-0.9158,-0.9216,-0.9241,-0.9261,-0.931,-0.9313,-0.932,-0.934,-0.9369,-0.9374,-0.9379,-0.9397,-0.9404,-0.9325,-0.9325,-0.9325,0,-0.8902,-0.8951,-0.8965,-0.9001,-0.9022,-0.9028,-0.9064,-0.9086,-0.9129,-0.9145,-0.9137,-0.9212,-0.9235,-0.929,-0.9302,-0.9318,-0.9329,-0.9316,-0.9372,-0.9377,-0.9381,-0.94,-0.9406,-0.9326,-0.9326,-0.9326,-0.9325,0,-0.8963,-0.8997,-0.9021,-0.9062,-0.9086,-0.9122,-0.9143,-0.9166,-0.9173,-0.919,-0.9237,-0.9266,-0.9306,-0.9319,-0.9327,-0.9376,-0.9372,-0.9368,-0.9354,-0.9388,-0.9406,-0.9413,-0.9327,-0.9326,-0.9326,-0.9326,0,0,-0.9003,-0.9052,-0.9061,-0.9081,-0.9119,-0.9146,-0.9183,-0.9221,-0.9241,-0.9271,-0.9303,-0.9353,-0.935,-0.9373,-0.9384,-0.9409,-0.9448,-0.9402,-0.9403,-0.941,-0.9506,-0.9509,-0.9516,-0.945,-0.9451,-0.9452,-0.9503,0,-0.9047,-0.911,-0.9125,-0.9181,-0.9213,-0.922,-0.9253,-0.928,-0.9298,-0.9329,-0.9348,-0.9384,-0.9376,-0.9391,-0.9415,-0.9437,-0.9467,-0.9434,-0.9481,-0.9483,-0.9473,-0.9525,-0.9529,-0.9575,-0.951,-0.9511,-0.9512,0,-0.9106,-0.9137,-0.9195,-0.923,-0.9245,-0.9273,-0.931,-0.9339,-0.9372,-0.9383,-0.9409,-0.9417,-0.9458,-0.9442,-0.9498,-0.9476,-0.9496,-0.951,-0.9512,-0.9518,-0.95,-0.9533,-0.959,-0.9598,-0.9522,-0.9522,-0.9521,0,-0.913,-0.9187,-0.9229,-0.9246,-0.9288,-0.9308,-0.9327,-0.9358,-0.938,-0.9413,-0.9428,-0.9466,-0.9487,-0.9516,-0.9535,-0.9522,-0.9591,-0.9576,-0.9602,-0.9602,-0.9617,-0.9616,-0.9679,-0.9628,-0.9628,-0.9628,-0.9628,0,-0.9178,-0.9214,-0.9241,-0.9268,-0.9309,-0.9326,-0.9366,-0.9385,-0.9413,-0.9445,-0.9454,-0.9483,-0.9506,-0.9539,-0.9555,-0.96,-0.9609,-0.962,-0.9624,-0.962,-0.9619,-0.9634,-0.9632,-0.963,-0.963,-0.9629,-0.9629,0,-0.9212,-0.9232,-0.9279,-0.9315,-0.9325,-0.9354,-0.9386,-0.9413,-0.943,-0.947,-0.948,-0.9508,-0.9548,-0.957,-0.962,-0.963,-0.9681,-0.9683,-0.967,-0.9672,-0.9697,-0.9695,-0.9773,-0.9785,-0.9726,-0.9726,-0.9727,0,-0.9242,-0.9269,-0.9308,-0.9329,-0.9348,-0.9382,-0.9405,-0.9424,-0.9448,-0.9488,-0.951,-0.955,-0.9583,-0.9647,-0.9673,-0.9711,-0.9715,-0.974,-0.9721,-0.9716,-0.9717,-0.9715,-0.9719,-0.9743,-0.9743,-0.9744,-0.9744,0,-0.9292,-0.9301,-0.9333,-0.9369,-0.9396,-0.9426,-0.9455,-0.9473,-0.9496,-0.9523,-0.9563,-0.9589,-0.964,-0.968,-0.9722,-0.9742,-0.9748,-0.975,-0.9758,-0.9755,-0.9747,-0.9753,-0.968,-0.9748,-0.9748,-0.9748,-0.9747,-0.9747,-0.9326,-0.9351,-0.9383,-0.9419,-0.9443,-0.9471,-0.9498,-0.9519,-0.9552,-0.9595,-0.9604,-0.9647,-0.9681,-0.9736,-0.9759,-0.9794,-0.9789,-0.9801,-0.9804,-0.9807,-0.9808,-0.974,-0.9801,-0.9801,-0.9801,-0.9801,-0.9801,0,-0.9377,-0.9398,-0.9431,-0.9472,-0.9501,-0.9503,-0.9536,-0.956,-0.9598,-0.9628,-0.966,-0.9708,-0.9747,-0.9776,-0.9817,-0.984,-0.9844,-0.985,-0.9849,-0.9854,-0.9809,-0.9799,-0.9846,-0.9846,-0.9846,-0.9846,-0.9846,-0.9846,-0.9408,-0.9451,-0.9464,-0.952,-0.9541,-0.9583,-0.9602,-0.9628,-0.9652,-0.9704,-0.9737,-0.9755,-0.9786,-0.9829,-0.9866,-0.9874,-0.9889,-0.9896,-0.9904,-0.9862,-0.9857,-0.9852,-0.9842,-0.9899,-0.9899,-0.9946,-0.9946,-0.9947]},{"header":{"parameterUnit":"m.s-1","parameterCategory":1,"la1":30.2991,"la2":30.254,"lo1":-89.0895,"lo2":-89.0444,"dy":0.0017,"dx":0.0017,"nx":28,"ny":28,"refTime":"2024-07-27T21:00:00:Z","depth":0,"parameterNumber":3,"parameterNumberName":"V-component_of_WINDS"},"data":[0,0,0,0,0,0,0,0,0,0,0,0,0,0,0,0,0,0,0,0,0,0,0,0,0,0,0,0,0,0,0,0,0,0,0,0,0,0,0,0,0,0,0,0,0,0,0,0,0,0,0,0,0,0,0,0,0,0,4.3202,4.3202,0,4.3245,4.3245,4.3246,4.3205,4.3204,4.3202,4.32,4.3245,4.3247,4.325,0,0,0,0,0,0,0,0,0,0,0,0,0,4.3083,4.3086,4.3202,4.3202,4.3203,4.3245,4.3246,4.3246,4.3206,4.3204,4.3202,4.32,4.3244,4.3247,4.325,0,0,0,0,0,0,0,0,0,0,0,0,0,4.3132,4.3087,4.3201,4.3187,4.3187,4.3245,4.3246,4.3246,4.3206,4.3203,4.3201,4.3199,4.3243,4.3247,4.3251,4.3325,0,0,4.3263,4.3265,0,0,0,0,0,0,0,0,4.3129,4.3136,4.3189,4.3189,4.3188,4.3217,4.322,4.3273,4.3207,4.3199,4.32,4.3198,4.3238,4.3242,4.3255,4.3327,4.3329,4.3263,4.3266,4.3268,4.3269,0,0,0,0,0,0,0,4.3126,4.3134,4.3219,4.319,4.3189,4.3179,4.3183,4.323,4.3231,4.3199,4.3196,4.3202,4.3237,4.3252,4.3256,4.3329,4.3263,4.3267,4.3269,4.3271,4.3464,4.3466,0,0,0,0,0,0,4.3124,4.3131,4.3217,4.322,4.3152,4.3183,4.3188,4.321,4.3231,4.3231,4.3204,4.32,4.3246,4.3251,4.3257,4.3345,4.3268,4.3271,4.3274,4.3461,4.3464,4.3467,0,0,0,0,0,0,4.3121,4.3132,4.3216,4.3175,4.3185,4.3188,4.3213,4.3212,4.3227,4.3234,4.3234,4.3219,4.3244,4.3252,4.3308,4.3346,4.3273,4.3277,4.3458,4.3462,4.3466,4.3522,0,0,0,0,0,0,4.3118,4.3131,4.3159,4.3176,4.3187,4.3266,4.3216,4.3215,4.3234,4.3229,4.3248,4.3249,4.3243,4.3303,4.3312,4.3351,4.328,4.3455,4.346,4.3465,4.3517,4.3527,4.3537,0,0,0,0,0,4.3114,4.3173,4.3161,4.3172,4.3222,4.3268,4.3274,4.3266,4.3238,4.3266,4.327,4.3249,4.3341,4.3309,4.3319,4.3359,4.3452,4.3458,4.3464,4.3512,4.3525,4.3536,0,0,0,0,0,0,4.3161,4.3175,4.3162,4.3228,4.3247,4.3261,4.3296,4.328,4.3308,4.3302,4.329,4.3295,4.3355,4.3363,4.3327,4.3432,4.3392,4.34,4.3425,4.3437,4.3447,4.3443,4.3283,0,0,0,0,0,4.3179,4.3215,4.3226,4.3283,4.3293,4.3294,4.3313,4.3305,4.3324,4.3332,4.3341,4.336,4.3394,4.3416,4.3447,4.3518,4.3521,4.3551,4.3561,4.3569,4.3576,4.3614,4.3627,4.3487,4.3487,4.3487,0,0,4.3217,4.3229,4.3252,4.3293,4.3307,4.3344,4.3301,4.3342,4.337,4.3338,4.3392,4.34,4.3421,4.3485,4.3513,4.3493,4.3616,4.3577,4.3583,4.3586,4.3622,4.3635,4.3647,4.3491,4.3491,4.349,0,0,4.3304,4.3317,4.3367,4.3382,4.3403,4.3403,4.3415,4.3432,4.3435,4.3489,4.3467,4.35,4.3557,4.3573,4.3589,4.3683,4.3664,4.3694,4.3746,4.3783,4.3794,4.3804,4.3837,4.3849,4.3701,4.3701,4.3702,0,4.3348,4.3404,4.3394,4.3437,4.3456,4.343,4.3479,4.3494,4.3525,4.3538,4.3516,4.3588,4.36,4.3668,4.3691,4.3704,4.3718,4.3691,4.3793,4.3803,4.3812,4.3844,4.3856,4.3705,4.3704,4.3704,4.3704,0,4.3457,4.3496,4.3533,4.3563,4.3586,4.3632,4.363,4.3654,4.3644,4.3646,4.3702,4.3716,4.375,4.3765,4.3756,4.3832,4.3818,4.3795,4.3754,4.3829,4.3858,4.3871,4.371,4.3709,4.3708,4.3707,0,0,4.3574,4.3599,4.3613,4.3626,4.3649,4.3679,4.3724,4.3757,4.3778,4.38,4.3838,4.3888,4.3866,4.3884,4.3877,4.3909,4.3983,4.3882,4.3882,4.39,4.4068,4.4085,4.4099,4.3971,4.3973,4.3975,4.4066,0,4.3662,4.3741,4.3733,4.3808,4.3844,4.382,4.3859,4.3877,4.3881,4.3912,4.3916,4.3951,4.392,4.3931,4.3962,4.3968,4.4017,4.3961,4.4006,4.4008,4.4001,4.4115,4.4133,4.4218,4.4077,4.4079,4.4081,0,4.3775,4.3801,4.388,4.3897,4.3911,4.3947,4.3977,4.4007,4.4027,4.4027,4.4048,4.4035,4.4081,4.4039,4.4102,4.4065,4.4083,4.4088,4.4091,4.4095,4.4048,4.4121,4.4245,4.4257,4.4099,4.4098,4.4096,0,4.3852,4.3908,4.3961,4.3974,4.3995,4.4021,4.4031,4.4049,4.4069,4.4096,4.4109,4.414,4.4157,4.4182,4.4178,4.4148,4.4242,4.42,4.4244,4.4244,4.4264,4.4263,4.4392,4.4276,4.4276,4.4276,4.4276,0,4.3951,4.3999,4.3996,4.403,4.4084,4.4075,4.4129,4.4136,4.4152,4.4186,4.4168,4.42,4.4193,4.4226,4.4223,4.4276,4.4284,4.4285,4.4284,4.4287,4.4286,4.4298,4.4292,4.4279,4.4279,4.4278,4.4277,0,4.4046,4.4046,4.4103,4.4119,4.4124,4.4163,4.4177,4.4208,4.4211,4.4254,4.4264,4.4268,4.4305,4.4304,4.4346,4.4344,4.4409,4.4401,4.4402,4.44,4.4443,4.4439,4.4584,4.4603,4.4476,4.4477,4.4478,0,4.4108,4.4145,4.4165,4.4187,4.4199,4.4234,4.4255,4.4248,4.4271,4.4297,4.4325,4.4361,4.4389,4.445,4.4457,4.4489,4.4482,4.453,4.4486,4.4488,4.4482,4.448,4.4483,4.4539,4.454,4.4541,4.4542,0,4.422,4.4218,4.4249,4.428,4.4305,4.4329,4.4351,4.437,4.4366,4.4393,4.4431,4.4452,4.4496,4.4532,4.4563,4.4573,4.4558,4.4556,4.4568,4.4571,4.457,4.4571,4.4425,4.4553,4.4551,4.4551,4.455,4.455,4.43,4.4332,4.4351,4.4386,4.4402,4.4423,4.4454,4.446,4.4492,4.4526,4.4521,4.4564,4.4583,4.4624,4.4637,4.4671,4.4654,4.4671,4.4675,4.4679,4.4684,4.4565,4.4677,4.4676,4.4676,4.4676,4.4675,0,4.441,4.4421,4.4453,4.4485,4.4513,4.4496,4.4519,4.4544,4.4581,4.4601,4.463,4.4674,4.4708,4.4718,4.4752,4.4777,4.477,4.4786,4.4784,4.4786,4.4697,4.4684,4.4791,4.4791,4.4791,4.479,4.479,4.479,4.447,4.4523,4.4524,4.4585,4.4596,4.4637,4.4652,4.4672,4.4688,4.4738,4.4767,4.4773,4.4789,4.4824,4.4855,4.4857,4.487,4.4889,4.4888,4.4804,4.4793,4.4782,4.4769,4.4892,4.4892,4.4974,4.4975,4.4975]}]]